Regional Weather Roundup
Issued by NWS Green Bay, WI

Home | Current Version | Previous Version | Text Only | Print | Product List | Glossary On
Versions: 1 2 3 4 5 6 7 8 9 10 11 12 13 14 15 16 17 18 19 20 21 22 23 24 25 26 27 28 29 30 31 32 33 34 35 36 37 38 39 40 41 42 43 44 45 46 47 48 49 50
000
ASUS43 KGRB 301200
RWRGRB

NORTH-CENTRAL AND NORTHEAST WISCONSIN REGIONAL WEATHER ROUNDUP
NATIONAL WEATHER SERVICE GREEN BAY WI
700 AM CDT THU JUL 30 2015

WIZ005-009-010>012-018-019-301300-
NORTH CENTRAL WISCONSIN

CITY           SKY/WX    TMP DP  RH WIND       PRES   REMARKS
IRONWOOD       SUNNY     64  55  72 W12       29.89R
MANITOWISH WTR NOT AVBL
ARBOR VITAE    NOT AVBL
EAGLE RIVER    NOT AVBL
LAND O LAKES   NOT AVBL
RHINELANDER    SUNNY     63  54  72 W12       29.96R
PHILLIPS       NOT AVBL
ANTIGO         NOT AVBL
TOMAHAWK       NOT AVBL
MERRILL        NOT AVBL
$$

WIZ013-073-301300-
NORTHEAST WISCONSIN

CITY           SKY/WX    TMP DP  RH WIND       PRES   REMARKS
IRON MOUNTAIN  SUNNY     66  53  63 W9        29.86R
MARINETTE      SUNNY     64  54  68 W6        29.89R
$$

WIZ017-030-035>037-045-301300-
CENTRAL WISCONSIN

CITY           SKY/WX    TMP DP  RH WIND       PRES   REMARKS
MEDFORD        NOT AVBL
WAUSAU         SUNNY     65  56  72 NW12      29.96R
MOSINEE        SUNNY     63  57  82 W8        29.99S
MARSHFIELD     SUNNY     63  54  72 W7        30.00R
WISC RAPIDS    SUNNY     65  54  67 W10       30.01R
STEVENS POINT  NOT AVBL
WAUPACA        NOT AVBL
SHAWANO        NOT AVBL
CLINTONVILLE   NOT AVBL
$$

WIZ038-039-048-051-301300-
FOX VALLEY

CITY           SKY/WX    TMP DP  RH WIND       PRES   REMARKS
NWS GREEN BAY  SUNNY     67  56  67 W10G21    29.95R
APPLETON       SUNNY     63  54  72 W8        29.97R
OSHKOSH        SUNNY     68  54  60 W8G17     29.97S
FOND DU LAC    SUNNY     66  56  70 W10       29.99R
$$

WIZ022-050-052-301300-
EAST CENTRAL WISCONSIN

CITY           SKY/WX    TMP DP  RH WIND       PRES   REMARKS
STURGEON BAY   SUNNY     66  54  63 W16G22    29.93R
MANITOWOC      NOT AVBL
SHEBOYGAN      SUNNY     68  56  65 W13       29.97R
$$

LMZ563-521-522-541>543-301300-
LAKESHORE

STATION/POSITION TIME  TEMP    WIND        PRES    VSBY  WAVE
                       AIR SEA DIR/SP/G                  HT/PER
                 (UTC) (F)     (DEG/KT/KT) (MB)    (MI)  (FT/S)
SHEBOYGAN LKSHOR 1100   69     260/ 11/ 13 1014.3R
ALGOMA MARINA    1142          260/  9/ 14   N/A
NORTHPORT PIER   1100   69     270/  9/ 16 1010.8R
N MID LAKE BUOY  1050   70 69  250/ 19/ 23 1009.4R         4/ 4
S GREEN BAY BUOY 1100   64 64  240/ 12/ 16 1014.0R
SISTER BAY LKSHO 1114   71     290/ 22/ 25   N/A
CHAMBERS ISLAND  1100   67     220/  9/ 15 1011.2R
MENOMINEE LKSHOR 1100   67                   N/A
$$


USA.gov is the U.S. government's official web portal to all federal, state and local government web resources and services.